Time,TemperatureF,DewpointF,PressureIn,WindDirection,WindDirectionDegrees,WindSpeedMPH,WindSpeedGustMPH,Humidity,HourlyPrecipIn,Conditions,Clouds,dailyrainin,SolarRadiationWatts/m^2,SoftwareType,DateUTC
2013-04-12 00:00:00,75.4,72.9,29.87,SE,126,15.0,15.0,92,0.00,,,0.00,0,Wunderground v.1.15,2013-04-12 04:00:00,
2013-04-12 00:30:00,75.5,73.0,29.89,SSE,150,16.0,16.0,92,0.00,,,0.00,0,Wunderground v.1.15,2013-04-12 04:30:00,
2013-04-12 01:00:00,75.7,73.2,29.89,SSE,151,14.0,19.0,92,0.00,,,0.00,0,Wunderground v.1.15,2013-04-12 05:00:00,
2013-04-12 01:30:00,75.7,73.2,29.90,SSE,158,16.0,16.0,92,0.00,,,0.00,0,Wunderground v.1.15,2013-04-12 05:30:00,
2013-04-12 02:00:00,75.6,73.1,29.88,SSE,153,14.0,14.0,92,0.00,,,0.00,0,Wunderground v.1.15,2013-04-12 06:00:00,
2013-04-12 02:30:00,75.7,73.2,29.88,SE,140,19.0,23.0,92,0.00,,,0.00,0,Wunderground v.1.15,2013-04-12 06:30:00,
2013-04-12 03:00:00,75.8,73.3,29.87,SSE,156,26.0,26.0,92,0.00,,,0.00,0,Wunderground v.1.15,2013-04-12 07:00:00,
2013-04-12 03:30:00,75.9,73.4,29.86,SE,132,21.0,22.0,92,0.00,,,0.00,0,Wunderground v.1.15,2013-04-12 07:30:00,
2013-04-12 04:00:00,75.7,73.5,29.85,SE,144,23.0,27.0,93,0.00,,,0.00,0,Wunderground v.1.15,2013-04-12 08:00:00,
2013-04-12 04:30:00,75.5,73.3,29.86,SE,132,21.0,22.0,93,0.00,,,0.01,0,Wunderground v.1.15,2013-04-12 08:30:00,
2013-04-12 05:00:00,75.3,73.1,29.87,SE,143,19.0,19.0,93,0.00,,,0.01,0,Wunderground v.1.15,2013-04-12 09:00:00,
2013-04-12 05:30:00,74.7,72.9,29.87,SSE,155,17.0,19.0,94,0.00,,,0.01,0,Wunderground v.1.15,2013-04-12 09:30:00,
2013-04-12 06:00:00,74.8,73.0,29.86,SE,146,17.0,17.0,94,0.00,,,0.01,0,Wunderground v.1.15,2013-04-12 10:00:00,
2013-04-12 06:30:00,74.9,73.1,29.87,SSE,165,20.0,20.0,94,0.00,,,0.01,0,Wunderground v.1.15,2013-04-12 10:30:00,
2013-04-12 07:00:00,75.1,73.3,29.87,SE,125,19.0,19.0,94,0.00,,,0.01,0,Wunderground v.1.15,2013-04-12 11:00:00,
2013-04-12 07:30:00,75.1,73.3,29.89,South,174,19.0,19.0,94,0.00,,,0.01,18,Wunderground v.1.15,2013-04-12 11:30:00,
2013-04-12 08:00:00,75.2,73.4,29.89,SE,128,19.0,19.0,94,0.00,,,0.01,49,Wunderground v.1.15,2013-04-12 12:00:00,
2013-04-12 08:30:00,75.4,73.6,29.89,SSE,148,17.0,17.0,94,0.00,,,0.01,107,Wunderground v.1.15,2013-04-12 12:30:00,
2013-04-12 09:00:00,75.5,73.3,29.90,South,171,15.0,15.0,93,0.00,,,0.01,151,Wunderground v.1.15,2013-04-12 13:00:00,
2013-04-12 09:30:00,75.5,73.3,29.90,SE,146,20.0,20.0,93,0.00,,,0.01,186,Wunderground v.1.15,2013-04-12 13:30:00,
2013-04-12 10:00:00,75.7,73.5,29.91,SSE,154,15.0,16.0,93,0.00,,,0.01,202,Wunderground v.1.15,2013-04-12 14:00:00,
2013-04-12 10:30:00,75.8,73.3,29.91,SSE,153,16.0,19.0,92,0.00,,,0.01,221,Wunderground v.1.15,2013-04-12 14:30:00,
2013-04-12 11:00:00,75.9,73.4,29.93,South,169,16.0,16.0,92,0.00,,,0.01,301,Wunderground v.1.15,2013-04-12 15:00:00,
2013-04-12 11:30:00,76.2,73.4,29.94,SSE,150,18.0,18.0,91,0.00,,,0.01,373,Wunderground v.1.15,2013-04-12 15:30:00,
2013-04-12 12:00:00,76.2,73.4,29.93,SE,144,18.0,19.0,91,0.00,,,0.01,359,Wunderground v.1.15,2013-04-12 16:00:00,
2013-04-12 12:30:00,76.1,73.3,29.93,SSE,159,20.0,21.0,91,0.00,,,0.01,353,Wunderground v.1.15,2013-04-12 16:30:00,
2013-04-12 13:00:00,76.3,73.8,29.92,South,173,20.0,20.0,92,0.00,,,0.01,390,Wunderground v.1.15,2013-04-12 17:00:00,
2013-04-12 13:30:00,75.7,73.2,29.92,SE,146,19.0,19.0,92,0.00,,,0.01,392,Wunderground v.1.15,2013-04-12 17:30:00,
2013-04-12 14:00:00,75.3,73.1,29.92,SSE,150,17.0,17.0,93,0.00,,,0.01,330,Wunderground v.1.15,2013-04-12 18:00:00,
2013-04-12 15:30:00,74.7,72.5,29.90,South,184,10.0,10.0,93,0.00,,,0.01,512,Wunderground v.1.15,2013-04-12 19:30:00,
2013-04-12 16:00:00,74.7,72.5,29.89,South,180,11.0,11.0,93,0.00,,,0.01,392,Wunderground v.1.15,2013-04-12 20:00:00,
2013-04-12 16:30:00,74.4,72.6,29.89,South,177,11.0,14.0,94,0.00,,,0.01,257,Wunderground v.1.15,2013-04-12 20:30:00,
2013-04-12 17:00:00,73.9,72.4,29.87,SSW,197,12.0,12.0,95,0.00,,,0.01,193,Wunderground v.1.15,2013-04-12 21:00:00,
2013-04-12 17:30:00,73.8,72.3,29.86,SSE,162,14.0,24.0,95,0.00,,,0.01,139,Wunderground v.1.15,2013-04-12 21:30:00,
2013-04-12 18:00:00,74.0,72.8,29.86,SSE,164,17.0,24.0,96,0.00,,,0.01,88,Wunderground v.1.15,2013-04-12 22:00:00,
2013-04-12 18:30:00,74.3,72.8,29.86,South,178,15.0,15.0,95,0.00,,,0.01,72,Wunderground v.1.15,2013-04-12 22:30:00,
2013-04-12 19:00:00,74.0,72.5,29.84,SSE,153,17.0,22.0,95,0.00,,,0.01,30,Wunderground v.1.15,2013-04-12 23:00:00,
2013-04-12 19:30:00,74.0,72.8,29.85,SSE,148,21.0,27.0,96,0.00,,,0.01,5,Wunderground v.1.15,2013-04-12 23:30:00,
2013-04-12 20:00:00,74.1,72.6,29.84,South,178,19.0,19.0,95,0.00,,,0.01,0,Wunderground v.1.15,2013-04-13 00:00:00,
2013-04-12 20:30:00,73.8,72.6,29.86,South,187,18.0,18.0,96,0.00,,,0.01,0,Wunderground v.1.15,2013-04-13 00:30:00,
2013-04-12 21:00:00,73.5,71.7,29.86,SSE,159,19.0,26.0,94,0.00,,,0.01,0,Wunderground v.1.15,2013-04-13 01:00:00,
2013-04-12 21:30:00,74.1,70.3,29.86,SSE,159,20.0,20.0,88,0.00,,,0.01,0,Wunderground v.1.15,2013-04-13 01:30:00,
2013-04-12 22:00:00,74.4,69.6,29.86,South,174,18.0,18.0,85,0.00,,,0.01,0,Wunderground v.1.15,2013-04-13 02:00:00,
2013-04-12 22:30:00,74.4,69.9,29.88,South,189,12.0,12.0,86,0.00,,,0.01,0,Wunderground v.1.15,2013-04-13 02:30:00,
2013-04-12 23:00:00,73.8,70.0,29.90,WSW,243,9.0,11.0,88,0.00,,,0.01,0,Wunderground v.1.15,2013-04-13 03:00:00,
2013-04-12 23:30:00,73.5,69.1,29.90,West,271,7.0,7.0,86,0.00,,,0.01,0,Wunderground v.1.15,2013-04-13 03:30:00,